VK5TRM-13 Weather Reports


time (UTC)temp
F
wind
direction
speed
knots
gust
knots
rain 1hr
in
rain 24hr
in
rain mn
in
humidity
%
barometer
mb
20260504004505 62 292 14.8 22.6 0.00 0.00 0.00 65 1014.7
20260504003005 61 292 12.2 19.1 0.00 0.00 0.00 68 1014.4
20260504001504 61 292 12.2 19.1 0.00 0.00 0.00 68 1014.4
20260504000005 59 315 12.2 15.6 0.00 0.00 0.00 70 1014.3
20260503234505 59 315 12.2 15.6 0.00 0.00 0.00 70 1014.3
20260503233004 58 315 8.7 13.9 0.00 0.00 0.00 72 1014.4
20260503231505 58 315 8.7 13.9 0.00 0.00 0.00 72 1014.4
20260503230005 56 337 7.8 13.0 0.00 0.00 0.00 76 1014.0
20260503224504 56 337 7.8 13.0 0.00 0.00 0.00 76 1014.0
20260503223004 55 337 7.8 13.0 0.00 0.00 0.00 78 1013.8
20260503221504 55 337 7.8 13.0 0.00 0.00 0.00 78 1013.8
20260503220004 54 337 7.0 13.0 0.00 0.00 0.00 80 1013.6
20260503214505 54 337 7.0 13.0 0.00 0.00 0.00 80 1013.6
20260503213005 54 315 7.8 12.2 0.00 0.00 0.00 81 1013.4
20260503211504 54 315 7.8 12.2 0.00 0.00 0.00 81 1013.4
20260503210005 54 337 7.8 12.2 0.00 0.00 0.00 80 1013.1
20260503204504 54 337 7.8 12.2 0.00 0.00 0.00 80 1013.1
20260503203005 54 337 8.7 14.8 0.00 0.00 0.00 79 1013.0
20260503201504 54 337 8.7 14.8 0.00 0.00 0.00 79 1013.0
20260503200004 54 337 8.7 14.8 0.00 0.00 0.00 79 1013.1
20260503194504 54 337 8.7 14.8 0.00 0.00 0.00 79 1013.1
20260503193005 54 337 7.0 8.7 0.00 0.00 0.00 80 1013.0
20260503191505 54 337 7.0 8.7 0.00 0.00 0.00 80 1013.0
20260503190005 54 337 5.2 7.8 0.00 0.00 0.00 80 1012.9
20260503184504 54 337 5.2 7.8 0.00 0.00 0.00 80 1012.9
20260503183004 54 337 7.0 10.4 0.00 0.00 0.00 79 1012.7
20260503181505 54 337 7.0 10.4 0.00 0.00 0.00 79 1012.7
20260503180005 55 337 6.1 8.7 0.00 0.00 0.00 78 1013.0
20260503174505 55 337 6.1 8.7 0.00 0.00 0.00 78 1013.0
20260503173005 55 337 6.1 8.7 0.00 0.00 0.00 77 1013.1
20260503171505 55 337 6.1 8.7 0.00 0.00 0.00 77 1013.1
20260503081504 63 315 5.2 7.0 0.00 0.00 0.00 50 1012.7
20260503071506 66 292 11.3 15.6 0.00 0.00 0.00 44 1012.4
20260503054504 67 315 8.7 13.9 0.00 0.00 0.00 42 1012.3
20260503053004 67 292 13.0 18.2 0.00 0.00 0.00 42 1012.2
20260503051505 67 292 13.0 18.2 0.00 0.00 0.00 42 1012.2
20260503050005 67 292 11.3 19.1 0.00 0.00 0.00 41 1012.2
20260503044505 67 292 11.3 19.1 0.00 0.00 0.00 41 1012.2
20260503043004 67 315 12.2 19.1 0.00 0.00 0.00 42 1012.5
20260503041504 67 315 12.2 19.1 0.00 0.00 0.00 42 1012.5
20260503040004 66 292 11.3 18.2 0.00 0.00 0.00 43 1013.0
20260503034505 66 292 11.3 18.2 0.00 0.00 0.00 43 1013.0
20260503033006 66 315 11.3 17.4 0.00 0.00 0.00 47 1013.2
20260503031505 66 315 11.3 17.4 0.00 0.00 0.00 47 1013.2
20260503030004 65 292 13.0 22.6 0.00 0.00 0.00 47 1013.4
20260503024504 65 292 13.0 22.6 0.00 0.00 0.00 47 1013.4
20260503023005 64 292 12.2 18.2 0.00 0.00 0.00 52 1013.6
20260503021505 64 292 12.2 18.2 0.00 0.00 0.00 52 1013.6
20260503020005 63 292 13.0 19.1 0.00 0.00 0.00 57 1013.7
20260503014505 63 292 13.0 19.1 0.00 0.00 0.00 57 1013.7
20260503013004 62 292 13.9 21.7 0.00 0.00 0.00 58 1013.7
20260503011506 62 292 13.9 21.7 0.00 0.00 0.00 58 1013.7
20260503010005 61 292 13.0 20.9 0.00 0.00 0.00 62 1013.7